Retour au catalogue

CZ-4C DEB

ActifSSO
NORAD 38658·DEBRIS·🇨🇳 China

Lancé Dec 15, 2009 depuis Taiyuan Satellite Launch Center

Loading…

Prochains Passages (prochaines 24 heures)

TLE

FraisSource: Space-Track

Époque: Sep 13, 2026, 13:45 UTC

1 38658U 09072F   26256.57341633  .00000375  00000-0  12351-2 0  9990
2 38658 100.5934 179.2763 0134578 245.9398 237.0996 13.05472038789459

Suivez CZ-4C DEB en temps réel avec AllMySat

Download on the App Store